| time (UTC) | temp F | wind direction | speed MPH | gust MPH | rain 1hr in | rain 24hr in | rain mn in | humidity % | barometer mb |
| 20260510135059 | 49 | 354 | 2.0 | 4.0 | 0.00 | 0.00 | 0.00 | 72 | 1012.8 |
| 20260510134019 | 49 | 317 | 1.0 | 3.0 | 0.00 | 0.00 | 0.00 | 70 | 1012.7 |
| 20260510133020 | 49 | 340 | 3.0 | 5.0 | 0.00 | 0.00 | 0.00 | 68 | 1012.6 |
| 20260510132018 | 49 | 2 | 3.0 | 4.0 | 0.00 | 0.00 | 0.00 | 69 | 1012.5 |
| 20260510131018 | 49 | 347 | 3.0 | 4.0 | 0.00 | 0.00 | 0.00 | 67 | 1012.5 |
| 20260510130040 | 49 | 288 | 1.0 | 2.0 | 0.00 | 0.00 | 0.00 | 67 | 1012.4 |
| 20260510125020 | 48 | 316 | 1.0 | 3.0 | 0.00 | 0.00 | 0.00 | 68 | 1012.3 |
| 20260510124041 | 49 | 260 | 1.0 | 2.0 | 0.00 | 0.00 | 0.00 | 71 | 1012.3 |
| 20260510123036 | 49 | 209 | 0.0 | 3.0 | 0.00 | 0.00 | 0.00 | 67 | 1012.1 |
| 20260510122017 | 49 | 319 | 0.0 | 3.0 | 0.00 | 0.00 | 0.00 | 66 | 1012.0 |
| 20260510121020 | 49 | 328 | 1.0 | 2.0 | 0.00 | 0.00 | 0.00 | 65 | 1012.0 |
| 20260510120020 | 49 | 280 | 1.0 | 4.0 | 0.00 | 0.00 | 0.00 | 64 | 1012.0 |
| 20260510115020 | 49 | 303 | 1.0 | 2.0 | 0.00 | 0.00 | 0.00 | 65 | 1012.0 |
| 20260510114017 | 49 | 344 | 1.0 | 4.0 | 0.00 | 0.00 | 0.00 | 65 | 1012.0 |
| 20260510113017 | 50 | 328 | 1.0 | 3.0 | 0.00 | 0.00 | 0.00 | 65 | 1012.0 |
| 20260510112020 | 50 | 321 | 1.0 | 2.0 | 0.00 | 0.00 | 0.00 | 64 | 1012.0 |
| 20260510111018 | 50 | 341 | 2.0 | 4.0 | 0.00 | 0.00 | 0.00 | 63 | 1011.9 |
| 20260510110018 | 50 | 321 | 2.0 | 5.0 | 0.00 | 0.00 | 0.00 | 63 | 1011.9 |
| 20260510105018 | 49 | 326 | 1.0 | 2.0 | 0.00 | 0.00 | 0.00 | 65 | 1011.9 |
| 20260510104018 | 49 | 273 | 0.0 | 1.0 | 0.00 | 0.00 | 0.00 | 66 | 1011.7 |
| 20260510103018 | 50 | 278 | 1.0 | 2.0 | 0.00 | 0.00 | 0.00 | 64 | 1011.6 |
| 20260510102018 | 50 | 255 | 1.0 | 2.0 | 0.00 | 0.00 | 0.00 | 64 | 1011.5 |
| 20260510101018 | 50 | 306 | 1.0 | 3.0 | 0.00 | 0.00 | 0.00 | 63 | 1011.3 |
| 20260510100020 | 50 | 336 | 1.0 | 3.0 | 0.00 | 0.00 | 0.00 | 63 | 1011.1 |
| 20260510095019 | 50 | 316 | 2.0 | 4.0 | 0.00 | 0.00 | 0.00 | 62 | 1011.0 |
| 20260510094019 | 51 | 329 | 2.0 | 3.0 | 0.00 | 0.00 | 0.00 | 61 | 1011.0 |
| 20260510093016 | 51 | 299 | 2.0 | 4.0 | 0.00 | 0.00 | 0.00 | 61 | 1010.9 |
| 20260510092016 | 51 | 309 | 2.0 | 5.0 | 0.00 | 0.00 | 0.00 | 60 | 1010.9 |
| 20260510091019 | 51 | 299 | 2.0 | 5.0 | 0.00 | 0.00 | 0.00 | 59 | 1010.7 |
| 20260510090020 | 52 | 281 | 2.0 | 5.0 | 0.00 | 0.00 | 0.00 | 59 | 1010.7 |
| 20260510085018 | 52 | 279 | 2.0 | 5.0 | 0.00 | 0.00 | 0.00 | 58 | 1010.5 |
| 20260510084017 | 52 | 286 | 2.0 | 4.0 | 0.00 | 0.00 | 0.00 | 58 | 1010.3 |
| 20260510083202 | 53 | 274 | 2.0 | 5.0 | 0.00 | 0.00 | 0.00 | 57 | 1010.1 |
| 20260510082017 | 53 | 254 | 2.0 | 6.0 | 0.00 | 0.00 | 0.00 | 57 | 1009.9 |
| 20260510081017 | 54 | 220 | 2.0 | 6.0 | 0.00 | 0.00 | 0.00 | 55 | 1009.6 |
| 20260510080019 | 54 | 231 | 2.0 | 6.0 | 0.00 | 0.00 | 0.00 | 54 | 1009.4 |
| 20260510075058 | 55 | 260 | 2.0 | 4.0 | 0.00 | 0.00 | 0.00 | 52 | 1009.3 |
| 20260510074018 | 55 | 295 | 1.0 | 3.0 | 0.00 | 0.00 | 0.00 | 50 | 1008.9 |
| 20260510073018 | 56 | 305 | 1.0 | 3.0 | 0.00 | 0.00 | 0.00 | 47 | 1008.7 |
| 20260510072018 | 57 | 252 | 0.0 | 3.0 | 0.00 | 0.00 | 0.00 | 45 | 1008.5 |
| 20260510071020 | 56 | 283 | 0.0 | 3.0 | 0.00 | 0.00 | 0.00 | 45 | 1008.5 |
| 20260510070019 | 56 | 301 | 1.0 | 3.0 | 0.00 | 0.00 | 0.00 | 46 | 1008.4 |
| 20260510065019 | 56 | 257 | 0.0 | 2.0 | 0.00 | 0.00 | 0.00 | 47 | 1008.4 |
| 20260510064016 | 56 | 301 | 1.0 | 4.0 | 0.00 | 0.00 | 0.00 | 48 | 1008.4 |
| 20260510063018 | 57 | 286 | 2.0 | 4.0 | 0.00 | 0.00 | 0.00 | 47 | 1008.3 |
| 20260510062021 | 56 | 273 | 1.0 | 2.0 | 0.00 | 0.00 | 0.00 | 45 | 1008.1 |
| 20260510061019 | 57 | 0.0 | 0.0 | 0.00 | 0.00 | 0.00 | 43 | 1008.1 | |
| 20260510060016 | 57 | 0.0 | 0.0 | 0.00 | 0.00 | 0.00 | 42 | 1008.2 | |
| 20260510055017 | 58 | 0.0 | 0.0 | 0.00 | 0.00 | 0.00 | 40 | 1008.2 | |
| 20260510054017 | 59 | 4 | 1.0 | 2.0 | 0.00 | 0.00 | 0.00 | 39 | 1008.2 |
| 20260510053041 | 59 | 354 | 2.0 | 2.0 | 0.00 | 0.00 | 0.00 | 39 | 1008.3 |
| 20260510052017 | 59 | 350 | 1.0 | 2.0 | 0.00 | 0.00 | 0.00 | 39 | 1008.4 |
| 20260510051059 | 60 | 0.0 | 0.0 | 0.00 | 0.00 | 0.00 | 37 | 1008.5 | |
| 20260510050019 | 61 | 0.0 | 0.0 | 0.00 | 0.00 | 0.00 | 35 | 1008.5 | |
| 20260510045019 | 61 | 187 | 0.0 | 2.0 | 0.00 | 0.00 | 0.00 | 34 | 1008.6 |
| 20260510044018 | 61 | 225 | 1.0 | 3.0 | 0.00 | 0.00 | 0.00 | 35 | 1008.8 |
| 20260510043018 | 62 | 221 | 1.0 | 3.0 | 0.00 | 0.00 | 0.00 | 35 | 1008.9 |
| 20260510042018 | 62 | 235 | 2.0 | 5.0 | 0.00 | 0.00 | 0.00 | 35 | 1009.0 |
| 20260510041018 | 62 | 235 | 1.0 | 4.0 | 0.00 | 0.00 | 0.00 | 38 | 1009.1 |
| 20260510040021 | 62 | 241 | 1.0 | 4.0 | 0.00 | 0.00 | 0.00 | 38 | 1009.1 |
| 20260510035018 | 62 | 239 | 1.0 | 6.0 | 0.00 | 0.00 | 0.00 | 39 | 1009.1 |
| 20260510034017 | 62 | 236 | 1.0 | 3.0 | 0.00 | 0.00 | 0.00 | 41 | 1009.2 |
| 20260510033020 | 62 | 239 | 0.0 | 3.0 | 0.00 | 0.00 | 0.00 | 44 | 1009.2 |
| 20260510032019 | 63 | 316 | 0.0 | 0.0 | 0.00 | 0.00 | 0.00 | 42 | 1009.2 |
| 20260510031019 | 63 | 267 | 0.0 | 1.0 | 0.00 | 0.00 | 0.00 | 40 | 1009.4 |
| 20260510030038 | 63 | 161 | 0.0 | 2.0 | 0.00 | 0.00 | 0.00 | 38 | 1009.6 |
| 20260510025017 | 64 | 140 | 1.0 | 3.0 | 0.00 | 0.00 | 0.00 | 39 | 1009.7 |
| 20260510024018 | 64 | 133 | 1.0 | 3.0 | 0.00 | 0.00 | 0.00 | 39 | 1009.7 |
| 20260510023038 | 65 | 137 | 1.0 | 2.0 | 0.00 | 0.00 | 0.00 | 39 | 1009.7 |
| 20260510022018 | 65 | 131 | 0.0 | 1.0 | 0.00 | 0.00 | 0.00 | 39 | 1009.8 |
| 20260510021018 | 66 | 105 | 0.0 | 1.0 | 0.00 | 0.00 | 0.00 | 39 | 1009.9 |
| 20260510020018 | 66 | 306 | 0.0 | 2.0 | 0.00 | 0.00 | 0.00 | 38 | 1010.0 |
| 20260510015017 | 66 | 233 | 2.0 | 5.0 | 0.00 | 0.00 | 0.00 | 37 | 1010.2 |
| 20260510014020 | 66 | 215 | 0.0 | 2.0 | 0.00 | 0.00 | 0.00 | 38 | 1010.3 |
| 20260510013019 | 66 | 196 | 1.0 | 3.0 | 0.00 | 0.00 | 0.00 | 41 | 1010.4 |
| 20260510012018 | 66 | 191 | 1.0 | 3.0 | 0.00 | 0.00 | 0.00 | 39 | 1010.5 |
| 20260510011020 | 66 | 173 | 1.0 | 3.0 | 0.00 | 0.00 | 0.00 | 40 | 1010.6 |
| 20260510010019 | 66 | 201 | 1.0 | 2.0 | 0.00 | 0.00 | 0.00 | 40 | 1010.7 |
| 20260510005019 | 67 | 132 | 1.0 | 2.0 | 0.00 | 0.00 | 0.00 | 39 | 1010.9 |
| 20260510004037 | 66 | 103 | 0.0 | 2.0 | 0.00 | 0.00 | 0.00 | 38 | 1011.2 |
| 20260510003019 | 67 | 228 | 2.0 | 4.0 | 0.00 | 0.00 | 0.00 | 37 | 1011.2 |
| 20260510002040 | 67 | 170 | 1.0 | 3.0 | 0.00 | 0.00 | 0.00 | 38 | 1011.3 |
| 20260510001021 | 66 | 151 | 1.0 | 4.0 | 0.00 | 0.00 | 0.00 | 40 | 1011.5 |
| 20260510000019 | 66 | 49 | 1.0 | 3.0 | 0.00 | 0.00 | 0.00 | 38 | 1011.7 |
| 20260509235017 | 66 | 63 | 0.0 | 2.0 | 0.00 | 0.00 | 0.00 | 40 | 1011.8 |
| 20260509234017 | 67 | 131 | 1.0 | 3.0 | 0.00 | 0.00 | 0.00 | 40 | 1011.9 |
| 20260509233017 | 66 | 238 | 2.0 | 7.0 | 0.00 | 0.00 | 0.00 | 37 | 1012.1 |
| 20260509232017 | 66 | 219 | 3.0 | 7.0 | 0.00 | 0.00 | 0.00 | 37 | 1012.2 |
| 20260509231018 | 66 | 208 | 2.0 | 4.0 | 0.00 | 0.00 | 0.00 | 36 | 1012.5 |
| 20260509230018 | 67 | 247 | 3.0 | 5.0 | 0.00 | 0.00 | 0.00 | 36 | 1012.7 |
| 20260509225018 | 67 | 197 | 2.0 | 3.0 | 0.00 | 0.00 | 0.00 | 37 | 1012.8 |
| 20260509224021 | 67 | 225 | 4.0 | 8.0 | 0.00 | 0.00 | 0.00 | 35 | 1012.8 |
| 20260509223018 | 67 | 245 | 3.0 | 8.0 | 0.00 | 0.00 | 0.00 | 35 | 1012.9 |
| 20260509222019 | 67 | 213 | 3.0 | 9.0 | 0.00 | 0.00 | 0.00 | 36 | 1013.0 |
| 20260509221019 | 67 | 242 | 2.0 | 5.0 | 0.00 | 0.00 | 0.00 | 37 | 1013.1 |
| 20260509220019 | 68 | 214 | 2.0 | 4.0 | 0.00 | 0.00 | 0.00 | 38 | 1013.3 |
| 20260509215016 | 67 | 227 | 2.0 | 6.0 | 0.00 | 0.00 | 0.00 | 38 | 1013.5 |
| 20260509214016 | 65 | 178 | 2.0 | 6.0 | 0.00 | 0.00 | 0.00 | 40 | 1013.8 |
| 20260509213021 | 64 | 240 | 4.0 | 9.0 | 0.00 | 0.00 | 0.00 | 39 | 1013.8 |
| 20260509212019 | 64 | 242 | 4.0 | 9.0 | 0.00 | 0.00 | 0.00 | 40 | 1013.8 |
| 20260509211037 | 64 | 246 | 3.0 | 6.0 | 0.00 | 0.00 | 0.00 | 42 | 1013.8 |
| 20260509210017 | 64 | 207 | 3.0 | 9.0 | 0.00 | 0.00 | 0.00 | 42 | 1013.8 |
| 20260509205017 | 65 | 222 | 3.0 | 7.0 | 0.00 | 0.00 | 0.00 | 41 | 1013.9 |
| 20260509204018 | 64 | 201 | 2.0 | 8.0 | 0.00 | 0.00 | 0.00 | 42 | 1014.1 |
| 20260509203022 | 63 | 207 | 2.0 | 6.0 | 0.00 | 0.00 | 0.00 | 43 | 1014.3 |
| 20260509202018 | 64 | 198 | 1.0 | 4.0 | 0.00 | 0.00 | 0.00 | 43 | 1014.2 |
| 20260509201018 | 64 | 222 | 3.0 | 5.0 | 0.00 | 0.00 | 0.00 | 43 | 1014.4 |
| 20260509200018 | 64 | 197 | 3.0 | 6.0 | 0.00 | 0.00 | 0.00 | 43 | 1014.4 |
| 20260509195018 | 63 | 212 | 3.0 | 7.0 | 0.00 | 0.00 | 0.00 | 44 | 1014.3 |
| 20260509194019 | 64 | 243 | 4.0 | 9.0 | 0.00 | 0.00 | 0.00 | 43 | 1014.4 |
| 20260509193018 | 66 | 179 | 2.0 | 7.0 | 0.00 | 0.00 | 0.00 | 41 | 1014.4 |
| 20260509192020 | 64 | 213 | 3.0 | 7.0 | 0.00 | 0.00 | 0.00 | 42 | 1014.5 |
| 20260509191021 | 64 | 234 | 5.0 | 9.0 | 0.00 | 0.00 | 0.00 | 43 | 1014.5 |
| 20260509190017 | 64 | 183 | 3.0 | 5.0 | 0.00 | 0.00 | 0.00 | 44 | 1014.6 |
| 20260509185036 | 63 | 187 | 2.0 | 5.0 | 0.00 | 0.00 | 0.00 | 45 | 1014.7 |
| 20260509184017 | 63 | 184 | 2.0 | 6.0 | 0.00 | 0.00 | 0.00 | 44 | 1014.7 |
| 20260509183019 | 62 | 162 | 2.0 | 5.0 | 0.00 | 0.00 | 0.00 | 46 | 1014.7 |
| 20260509182020 | 62 | 179 | 2.0 | 5.0 | 0.00 | 0.00 | 0.00 | 46 | 1014.8 |
| 20260509181019 | 62 | 137 | 2.0 | 6.0 | 0.00 | 0.00 | 0.00 | 47 | 1014.9 |
| 20260509180017 | 62 | 172 | 2.0 | 5.0 | 0.00 | 0.00 | 0.00 | 47 | 1014.9 |
| 20260509175038 | 61 | 119 | 2.0 | 5.0 | 0.00 | 0.00 | 0.00 | 49 | 1015.1 |
| 20260509174018 | 60 | 183 | 2.0 | 5.0 | 0.00 | 0.00 | 0.00 | 51 | 1015.3 |
| 20260509173039 | 59 | 197 | 2.0 | 4.0 | 0.00 | 0.00 | 0.00 | 54 | 1015.4 |
| 20260509172019 | 59 | 176 | 2.0 | 5.0 | 0.00 | 0.00 | 0.00 | 56 | 1015.5 |
| 20260509171018 | 59 | 217 | 2.0 | 4.0 | 0.00 | 0.00 | 0.00 | 57 | 1015.5 |
| 20260509170038 | 58 | 179 | 0.0 | 2.0 | 0.00 | 0.00 | 0.00 | 57 | 1015.6 |
| 20260509165018 | 58 | 236 | 1.0 | 3.0 | 0.00 | 0.00 | 0.00 | 57 | 1015.7 |
| 20260509164019 | 58 | 253 | 1.0 | 3.0 | 0.00 | 0.00 | 0.00 | 57 | 1015.8 |
| 20260509163039 | 56 | 343 | 1.0 | 3.0 | 0.00 | 0.00 | 0.00 | 60 | 1015.9 |
| 20260509162018 | 55 | 147 | 2.0 | 3.0 | 0.00 | 0.00 | 0.00 | 63 | 1016.0 |
| 20260509161039 | 55 | 187 | 1.0 | 3.0 | 0.00 | 0.00 | 0.00 | 63 | 1016.0 |
| 20260509160017 | 56 | 134 | 1.0 | 3.0 | 0.00 | 0.00 | 0.00 | 62 | 1016.0 |
| 20260509155016 | 56 | 219 | 0.0 | 2.0 | 0.00 | 0.00 | 0.00 | 64 | 1016.1 |
| 20260509154019 | 55 | 321 | 0.0 | 3.0 | 0.00 | 0.00 | 0.00 | 63 | 1016.1 |
| 20260509153041 | 53 | 353 | 0.0 | 2.0 | 0.00 | 0.00 | 0.00 | 65 | 1016.2 |
| 20260509152018 | 51 | 300 | 1.0 | 3.0 | 0.00 | 0.00 | 0.00 | 70 | 1016.3 |
| 20260509151017 | 50 | 330 | 2.0 | 3.0 | 0.00 | 0.00 | 0.00 | 72 | 1016.2 |
| 20260509150038 | 50 | 282 | 0.0 | 1.0 | 0.00 | 0.00 | 0.00 | 76 | 1016.2 |
| 20260509145018 | 50 | 335 | 2.0 | 3.0 | 0.00 | 0.00 | 0.00 | 71 | 1016.1 |
| 20260509144018 | 50 | 343 | 1.0 | 3.0 | 0.00 | 0.00 | 0.00 | 73 | 1016.1 |
| 20260509143018 | 51 | 329 | 1.0 | 2.0 | 0.00 | 0.00 | 0.00 | 72 | 1016.1 |
| 20260509142019 | 51 | 336 | 2.0 | 3.0 | 0.00 | 0.00 | 0.00 | 68 | 1015.9 |
| 20260509141018 | 51 | 337 | 3.0 | 4.0 | 0.00 | 0.00 | 0.00 | 69 | 1015.9 |
| 20260509140018 | 51 | 335 | 2.0 | 4.0 | 0.00 | 0.00 | 0.00 | 69 | 1015.9 |